CW8420 Weather Reports


time (UTC)temp
F
wind
direction
speed
knots
gust
knots
rain 1hr
in
rain 24hr
in
rain mn
in
humidity
%
barometer
mb
20200531081956 66 29 0.0 0.0 0.00 0.00 0.00 45 1014.1
20200531081458 66 29 0.0 0.0 0.00 0.00 0.00 45 1014.1
20200531081001 66 29 0.0 0.0 0.00 0.00 0.00 45 1014.2
20200531080502 66 29 0.0 0.0 0.00 0.00 0.00 45 1014.2
20200531080003 66 29 0.0 0.0 0.00 0.00 0.00 45 1014.2
20200531075508 67 29 0.0 0.0 0.00 0.00 0.00 45 1014.3
20200531075004 67 29 0.0 0.0 0.00 0.00 0.00 45 1014.2
20200531074505 67 29 0.0 0.0 0.00 0.00 0.00 45 1014.2
20200531074008 67 29 0.0 0.0 0.00 0.00 0.00 45 1014.3
20200531073511 67 29 0.0 0.0 0.00 0.00 0.00 45 1014.3
20200531073011 67 29 0.0 0.0 0.00 0.00 0.00 44 1014.3
20200531072512 67 29 0.0 0.0 0.00 0.00 0.00 44 1014.3
20200531072016 67 29 0.0 0.0 0.00 0.00 0.00 43 1014.3
20200531071512 68 29 0.0 0.0 0.00 0.00 0.00 43 1014.4
20200531070956 68 29 0.0 0.0 0.00 0.00 0.00 43 1014.4
20200531070502 68 29 0.0 0.0 0.00 0.00 0.00 43 1014.4
20200531065956 68 29 0.0 0.0 0.00 0.00 0.00 43 1014.4
20200531065459 68 29 0.0 0.0 0.00 0.00 0.00 43 1014.4
20200531065001 68 29 0.0 0.0 0.00 0.00 0.00 42 1014.4
20200531064502 68 29 0.0 0.0 0.00 0.00 0.00 42 1014.4
20200531064003 69 29 0.0 0.0 0.00 0.00 0.00 42 1014.4
20200531063507 69 29 0.0 0.0 0.00 0.00 0.00 42 1014.4
20200531063010 69 29 0.0 0.0 0.00 0.00 0.00 42 1014.4
20200531062453 69 29 0.0 0.0 0.00 0.00 0.00 42 1014.4
20200531061950 69 29 0.0 0.0 0.00 0.00 0.00 42 1014.3
20200531061448 69 29 0.0 0.0 0.00 0.00 0.00 42 1014.3
20200531060957 69 29 0.0 0.0 0.00 0.00 0.00 41 1014.4
20200531060501 70 29 0.0 0.0 0.00 0.00 0.00 40 1014.4
20200531060005 70 29 0.0 0.0 0.00 0.00 0.00 40 1014.4
20200531055510 70 29 0.0 0.0 0.00 0.00 0.00 39 1014.4
20200531055011 71 29 0.0 0.0 0.00 0.00 0.00 39 1014.3
20200531054456 71 29 0.0 0.0 0.00 0.00 0.00 38 1014.2
20200531053955 72 29 0.0 0.0 0.00 0.00 0.00 37 1014.1
20200531053500 72 29 0.0 0.0 0.00 0.00 0.00 37 1014.1
20200531053000 73 29 0.0 0.0 0.00 0.00 0.00 37 1014.1
20200531052500 73 29 0.0 0.0 0.00 0.00 0.00 36 1014.1
20200531052003 73 29 0.0 0.0 0.00 0.00 0.00 36 1014.3
20200531051506 74 29 0.0 0.0 0.00 0.00 0.00 36 1014.2
20200531051010 74 29 0.0 0.0 0.00 0.00 0.00 35 1014.2
20200531050512 74 29 0.0 0.0 0.00 0.00 0.00 35 1014.2
20200531050009 75 29 0.0 0.0 0.00 0.00 0.00 35 1014.1
20200531045509 75 29 0.0 0.0 0.00 0.00 0.00 35 1014.1
20200531045002 75 46 0.0 0.0 0.00 0.00 0.00 35 1014.1
20200531044443 75 46 0.0 0.0 0.00 0.00 0.00 35 1013.9
20200531043948 75 46 0.0 0.0 0.00 0.00 0.00 35 1013.9
20200531043457 76 28 0.0 0.0 0.00 0.00 0.00 34 1013.8
20200531043002 76 29 0.0 0.0 0.00 0.00 0.00 34 1013.7
20200531042501 76 29 0.0 0.0 0.00 0.00 0.00 34 1013.6
20200531042007 76 28 0.0 0.0 0.00 0.00 0.00 34 1013.5
20200531041510 77 29 0.0 0.0 0.00 0.00 0.00 33 1013.4
20200531041011 77 28 0.0 0.0 0.00 0.00 0.00 33 1013.3
20200531040509 77 28 0.0 0.0 0.00 0.00 0.00 32 1013.2
20200531040015 78 28 0.0 0.0 0.00 0.00 0.00 32 1013.4
20200531035519 78 28 0.0 0.0 0.00 0.00 0.00 31 1013.2
20200531035009 79 28 0.0 0.0 0.00 0.00 0.00 30 1013.2
20200531034512 79 277 0.0 0.0 0.00 0.00 0.00 30 1013.2
20200531033956 80 276 0.0 0.0 0.00 0.00 0.00 30 1013.2
20200531033459 80 275 0.0 0.0 0.00 0.00 0.00 29 1013.1
20200531032959 81 276 0.0 0.0 0.00 0.00 0.00 29 1013.1
20200531032501 81 276 0.0 0.0 0.00 0.00 0.00 29 1013.2
20200531032002 82 275 0.0 0.0 0.00 0.00 0.00 29 1013.2
20200531031453 82 276 0.0 0.9 0.00 0.00 0.00 28 1013.1
20200531030954 82 276 0.0 0.9 0.00 0.00 0.00 28 1013.0
20200531030459 82 314 0.0 7.0 0.00 0.00 0.00 27 1012.9
20200531025944 83 289 2.6 8.7 0.00 0.00 0.00 27 1012.9
20200531025450 83 323 2.6 7.8 0.00 0.00 0.00 27 1012.8
20200531024955 83 308 3.5 7.8 0.00 0.00 0.00 27 1012.7
20200531024512 83 308 2.6 7.8 0.00 0.00 0.00 27 1012.7
20200531023447 83 318 1.7 7.0 0.00 0.00 0.00 26 1012.6
20200531023158 83 281 1.7 7.0 0.00 0.00 0.00 26 1001.2
20200531022952 84 302 0.9 7.0 0.00 0.00 0.00 26 1012.4
20200531022452 84 294 0.0 4.3 0.00 0.00 0.00 26 1012.5
20200531021959 84 308 0.0 0.9 0.00 0.00 0.00 25 1012.5
20200531021621 84 318 0.0 0.9 0.00 0.00 0.00 25 1001.3
20200531021444 84 318 0.0 0.9 0.00 0.00 0.00 25 1012.6
20200531020952 85 319 0.0 7.0 0.00 0.00 0.00 24 1012.5
20200531020450 85 347 0.9 7.0 0.00 0.00 0.00 24 1012.4
20200531020147 84 314 0.0 7.8 0.00 0.00 0.00 23 1001.2
20200531015954 85 303 0.0 7.8 0.00 0.00 0.00 23 1012.5
20200531015508 85 312 3.5 11.3 0.00 0.00 0.00 23 1012.5
20200531015008 85 285 4.3 11.3 0.00 0.00 0.00 24 1012.5
20200531014508 85 285 0.0 0.9 0.00 0.00 0.00 26 1012.4
20200531014007 85 317 0.0 0.0 0.00 0.00 0.00 26 1012.3
20200531013455 85 317 0.0 0.0 0.00 0.00 0.00 26 1012.1
20200531013135 85 317 0.0 0.0 0.00 0.00 0.00 26 1000.7
20200531012942 86 317 0.0 0.0 0.00 0.00 0.00 26 1011.9
20200531012446 86 317 0.0 0.0 0.00 0.00 0.00 26 1011.9
20200531012002 86 344 0.0 0.0 0.00 0.00 0.00 26 1011.9
20200531011453 86 351 0.0 0.0 0.00 0.00 0.00 26 1011.8
20200531010958 86 351 0.0 0.0 0.00 0.00 0.00 26 1011.7
20200531010442 87 331 0.0 0.0 0.00 0.00 0.00 26 1011.6
20200531005947 87 337 0.0 0.9 0.00 0.00 0.00 25 1011.5
20200531005502 87 334 0.0 0.9 0.00 0.00 0.00 25 1011.5
20200531005006 87 327 0.0 0.9 0.00 0.00 0.00 25 1011.4
20200531004458 87 318 0.0 2.6 0.00 0.00 0.00 25 1011.4
20200531003959 88 313 0.0 10.4 0.00 0.00 0.00 25 1011.5
20200531003455 88 287 2.6 10.4 0.00 0.00 0.00 25 1011.5
20200531003016 88 294 1.7 8.7 0.00 0.00 0.00 25 1011.5
20200531002459 89 306 2.6 8.7 0.00 0.00 0.00 24 1011.5
20200531001747 89 289 4.3 8.7 0.00 0.00 0.00 23 1000.4
20200531001159 90 266 0.0 0.0 0.00 0.00 0.00 23 1011.8
20200530213006 99 121 0.0 6.1 0.00 0.00 0.00 15 1013.3
20200530212511 99 136 0.9 6.1 0.00 0.00 0.00 16 1013.3
20200530212005 99 167 0.9 2.6 0.00 0.00 0.00 16 1013.5
20200530211515 100 159 0.9 13.0 0.00 0.00 0.00 16 1013.6
20200530211039 100 155 1.7 13.0 0.00 0.00 0.00 16 1013.7
20200530210522 100 169 0.0 3.5 0.00 0.00 0.00 15 1013.7
20200530210007 100 148 0.9 3.5 0.00 0.00 0.00 15 1013.8
20200530205513 101 198 0.0 7.0 0.00 0.00 0.00 15 1013.9
20200530205008 100 166 0.0 7.0 0.00 0.00 0.00 15 1014.0
20200530204509 100 143 0.0 1.7 0.00 0.00 0.00 15 1014.1
20200530204003 100 167 0.0 2.6 0.00 0.00 0.00 16 1014.3
20200530203513 99 249 0.9 3.5 0.00 0.00 0.00 17 1014.3
20200530203012 99 94 0.9 3.5 0.00 0.00 0.00 15 1014.3
20200530202507 99 153 0.9 3.5 0.00 0.00 0.00 16 1014.3
20200530202004 99 193 0.0 3.5 0.00 0.00 0.00 16 1014.3
20200530201643 98 166 0.9 4.3 0.00 0.00 0.00 16 1003.1
20200530201450 99 137 0.9 8.7 0.00 0.00 0.00 16 1014.5
20200530200953 98 218 0.0 8.7 0.00 0.00 0.00 16 1014.5
20200530200503 98 141 0.0 7.8 0.00 0.00 0.00 16 1014.7
20200530195954 98 158 0.9 7.8 0.00 0.00 0.00 16 1014.7
20200530195456 98 160 0.9 8.7 0.00 0.00 0.00 16 1014.7
20200530195002 98 135 1.7 8.7 0.00 0.00 0.00 16 1014.9
20200530194449 98 177 0.9 5.2 0.00 0.00 0.00 17 1014.8
20200530194001 97 125 0.0 2.6 0.00 0.00 0.00 17 1014.9
20200530193510 97 183 0.9 4.3 0.00 0.00 0.00 16 1015.0
20200530193014 97 177 0.0 4.3 0.00 0.00 0.00 17 1015.0
20200530192500 97 164 0.9 3.5 0.00 0.00 0.00 17 1015.2
20200530192002 96 178 0.0 8.7 0.00 0.00 0.00 18 1015.2
20200530191504 96 177 1.7 8.7 0.00 0.00 0.00 16 1015.3
20200530191004 97 163 0.0 3.5 0.00 0.00 0.00 17 1015.4
20200530190502 97 136 0.9 4.3 0.00 0.00 0.00 16 1015.5
20200530190002 97 171 0.0 12.2 0.00 0.00 0.00 16 1015.6
20200530185447 98 206 0.9 12.2 0.00 0.00 0.00 17 1015.6
20200530184953 97 150 0.9 7.0 0.00 0.00 0.00 17 1015.6
20200530184453 97 159 0.9 10.4 0.00 0.00 0.00 17 1015.7
20200530183958 97 179 0.9 10.4 0.00 0.00 0.00 17 1015.7
20200530183443 97 189 0.9 7.0 0.00 0.00 0.00 16 1015.8
20200530182945 97 169 0.9 8.7 0.00 0.00 0.00 17 1015.8
20200530182450 96 127 1.7 8.7 0.00 0.00 0.00 17 1016.0
20200530181957 96 181 0.9 7.8 0.00 0.00 0.00 17 1016.0
20200530181445 96 152 0.9 7.8 0.00 0.00 0.00 17 1016.0
20200530180957 96 151 0.9 6.1 0.00 0.00 0.00 17 1016.1
20200530180452 96 158 0.9 10.4 0.00 0.00 0.00 17 1016.0
20200530180006 95 155 1.7 7.8 0.00 0.00 0.00 17 1016.1
20200530175456 95 160 2.6 9.6 0.00 0.00 0.00 17 1016.3
20200530175007 95 164 2.6 10.4 0.00 0.00 0.00 17 1016.1
20200530174518 95 147 0.0 7.8 0.00 0.00 0.00 19 1016.3
20200530174009 94 189 0.9 7.8 0.00 0.00 0.00 20 1016.3
20200530173512 94 155 0.9 6.1 0.00 0.00 0.00 20 1016.3
20200530173012 94 108 0.9 5.2 0.00 0.00 0.00 20 1016.4
20200530172511 93 148 0.9 5.2 0.00 0.00 0.00 20 1016.3
20200530172009 93 164 0.9 3.5 0.00 0.00 0.00 21 1016.3
20200530171510 92 158 0.9 7.0 0.00 0.00 0.00 20 1016.4
20200530171011 92 168 0.9 7.0 0.00 0.00 0.00 21 1016.4
20200530170511 91 148 0.9 7.0 0.00 0.00 0.00 22 1016.5
20200530170010 90 190 1.7 7.0 0.00 0.00 0.00 22 1016.5
20200530165512 90 174 0.9 4.3 0.00 0.00 0.00 22 1016.6
20200530165014 89 154 0.0 2.6 0.00 0.00 0.00 22 1016.6
20200530164519 89 163 0.0 3.5 0.00 0.00 0.00 21 1016.6
20200530164019 90 159 0.9 3.5 0.00 0.00 0.00 20 1016.6
20200530163519 91 204 0.0 2.6 0.00 0.00 0.00 22 1016.6
20200530163017 92 174 0.0 4.3 0.00 0.00 0.00 21 1016.6
20200530162517 92 162 0.0 7.0 0.00 0.00 0.00 20 1016.5
20200530162018 92 148 0.9 7.0 0.00 0.00 0.00 23 1016.6
20200530161519 91 168 0.9 3.5 0.00 0.00 0.00 23 1016.6
20200530161022 90 153 0.0 3.5 0.00 0.00 0.00 24 1016.7
20200530160519 89 152 0.9 3.5 0.00 0.00 0.00 26 1016.7
20200530160020 89 170 0.0 1.7 0.00 0.00 0.00 25 1016.7
20200530155517 88 208 0.0 7.0 0.00 0.00 0.00 25 1016.8
20200530154956 88 125 0.0 7.0 0.00 0.00 0.00 25 1016.8
20200530154500 88 186 0.0 2.6 0.00 0.00 0.00 26 1016.7
20200530153959 88 156 0.0 0.9 0.00 0.00 0.00 27 1016.8
20200530153500 87 196 0.0 1.7 0.00 0.00 0.00 29 1016.8
20200530153001 87 118 0.0 1.7 0.00 0.00 0.00 29 1016.9
20200530152503 86 106 0.0 0.9 0.00 0.00 0.00 29 1016.9
20200530152000 86 264 0.0 0.0 0.00 0.00 0.00 32 1016.8
20200530151518 85 162 0.0 0.0 0.00 0.00 0.00 31 1016.8
20200530151018 84 162 0.0 0.0 0.00 0.00 0.00 33 1016.7
20200530150517 83 162 0.0 0.0 0.00 0.00 0.00 34 1016.8
20200530150018 82 162 0.0 0.0 0.00 0.00 0.00 35 1016.8
20200530145517 81 162 0.0 0.0 0.00 0.00 0.00 37 1016.8
20200530145014 80 162 0.0 0.0 0.00 0.00 0.00 37 1016.9
20200530144512 79 162 0.0 0.0 0.00 0.00 0.00 38 1016.9
20200530144014 78 162 0.0 0.0 0.00 0.00 0.00 40 1016.8
20200530143514 77 162 0.0 0.0 0.00 0.00 0.00 42 1016.8
20200530143015 76 162 0.0 0.0 0.00 0.00 0.00 43 1016.7
20200530142516 75 156 0.0 0.0 0.00 0.00 0.00 44 1016.7
20200530142012 74 154 0.0 0.0 0.00 0.00 0.00 46 1016.6
20200530141512 73 154 0.0 0.0 0.00 0.00 0.00 49 1016.6
20200530141004 71 151 0.0 0.0 0.00 0.00 0.00 50 1016.6
20200530140447 70 97 0.0 0.0 0.00 0.00 0.00 55 1016.5